SCP
1 1 1 0 0 0 0 0 0 0 1 3 4 4 3 4 5 6 4 4 4 5 6 6 5 4 3 2 3 3 4 4 3 3 2 2 2 2 2 2 2 2 2 1
1 1 0 0 0 0 0 0 0 0 2 4 5 4 4 5 6 6 5 4 4 5 5 5 4 3 3 3 3 4 4 3 3 3 2 2 3 3 2 2 2 2 2 2
0 0 0 0 0 1 1 0 1 1 3 6 7 5 5 6 7 7 5 5 5 5 5 4 4 4 4 4 4 4 4 3 3 3 3 3 3 3 3 3 3 2 2 2
0 0 0 0 1 1 1 1 1 2 4 7 9 7 5 7 8 7 6 6 6 6 6 5 5 6 6 6 6 5 5 4 4 5 5 4 4 3 3 3 3 3 2 2
0 0 0 0 1 1 1 1 2 3 5 8 10 8 6 7 9 10 9 9 8 8 7 7 7 8 8 7 7 6 6 5 5 5 6 5 5 4 4 3 3 2 2 1
1 0 0 0 0 0 1 1 3 4 5 7 8 8 8 10 12 13 13 12 11 10 10 10 10 10 8 7 6 6 5 5 4 5 5 4 4 4 4 3 2 2 1 1
1 0 0 1 1 1 1 2 3 4 5 6 6 7 10 13 14 15 14 13 12 11 11 11 10 10 9 7 6 6 5 4 4 3 3 3 2 3 2 2 1 1 0 0
1 1 1 1 2 2 2 3 3 3 3 4 5 7 9 12 13 14 14 13 13 13 12 11 9 9 9 9 8 7 5 4 3 3 2 2 2 2 2 1 1 0 0 0
1 1 1 2 2 3 3 3 3 2 2 3 4 5 6 7 9 12 13 14 14 13 12 10 9 9 9 8 6 5 4 3 2 2 2 1 1 1 1 1 0 0 0 1
1 1 1 2 2 2 3 3 3 2 2 2 3 3 4 5 6 8 10 11 11 9 8 7 7 7 6 5 3 2 2 2 1 1 1 1 1 1 0 0 0 0 1 1
1 1 1 1 1 1 1 2 2 2 2 2 3 3 4 5 5 5 6 6 5 4 4 3 3 3 3 2 2 1 1 1 1 0 0 0 0 0 0 0 0 0 0 0
1 1 1 1 1 1 1 1 1 2 2 3 3 4 5 5 5 4 4 3 3 2 2 1 1 1 1 1 1 1 1 1 0 0 0 0 0 0 0 0 0 0 0 0
1 1 1 1 1 0 0 1 1 2 2 3 3 3 4 4 4 3 3 2 2 1 1 0 0 0 0 0 1 1 0 0 0 0 0 0 0 0 0 0 0 0 0 0
1 0 0 0 1 0 0 1 1 2 2 2 2 2 2 2 2 2 2 1 1 1 0 0 0 0 0 0 0 0 0 0 0 0 0 0 0 0 0 0 0 0 0 0
1 0 0 0 0 0 0 1 2 2 2 2 2 1 1 1 1 1 0 0 0 0 0 0 0 0 0 0 0 0 0 0 0 0 0 0 0 0 0 0 0 0 0 0
1 1 0 0 0 0 0 1 1 1 1 1 1 0 0 0 0 0 0 0 0 0 0 0 0 0 0 0 0 0 0 0 0 0 0 0 0 0 0 0 0 0 0 0
1 0 0 0 0 0 1 1 1 1 1 1 0 0 0 0 0 0 0 0 0 0 0 0 0 0 0 0 0 0 0 0 0 0 0 0 0 0 0 0 0 0 0 0
0 0 0 0 0 1 1 1 1 1 1 0 0 0 0 0 0 0 0 0 0 0 0 0 0 0 0 0 0 0 0 0 0 0 0 0 0 0 0 0 0 0 0 0
0 0 0 0 1 1 1 1 1 1 0 0 0 0 0 0 0 0 0 0 0 0 0 0 0 0 0 0 0 0 0 0 0 0 0 0 0 0 0 0 0 0 0 0
0 0 1 1 1 1 1 1 1 0 0 0 0 0 0 0 0 0 0 0 0 0 0 0 0 0 0 0 0 0 0 0 0 0 0 0 0 0 0 0 0 0 0 0
1 1 1 1 1 1 1 1 0 0 0 0 0 0 0 0 0 0 0 0 0 0 0 0 0 0 0 0 0 0 0 0 0 0 0 0 0 0 0 0 0 0 0 0
1 1 1 1 0 0 0 0 0 0 0 0 0 0 0 0 0 0 0 0 0 0 0 0 0 0 0 0 0 0 0 0 0 0 0 0 0 0 0 0 0 0 0 0
1 1 1 0 0 0 0 0 0 0 0 0 0 0 0 0 0 0 0 0 0 0 0 0 0 0 0 0 0 0 0 0 0 0 0 0 0 0 0 0 0 0 0 0
1 1 1 0 0 0 0 0 0 0 0 0 0 0 0 0 0 0 0 0 0 0 0 0 0 0 0 0 0 0 0 0 0 0 0 0 0 0 0 0 0 0 0 0
1 1 0 0 0 0 0 0 0 0 0 0 0 0 0 0 0 0 0 0 0 0 0 0 0 0 0 0 0 0 0 0 0 0 0 0 0 0 0 0 0 0 0 0
0 0 0 0 0 0 0 0 0 0 0 0 0 0 0 0 0 0 0 0 0 0 0 0 0 0 0 0 0 0 0 0 0 0 0 0 0 0 0 0 0 0 0 0
0 0 0 0 0 0 0 0 0 0 0 0 0 0 0 0 0 0 0 0 0 0 0 0 0 0 0 0 0 0 0 0 0 0 0 0 0 0 0 0 0 0 0 0
Wind_Speed
16 11 7 7 11 14 15 14 13 10 5 4 4 3 3 5 8 10 12 12 12 12 10 10 10 10 10 10 9 9 9 9 9 8 7 6 6 6 5 5 5 4 3 2
14 14 11 10 11 13 16 15 15 13 8 3 3 3 4 6 8 9 11 12 12 12 12 11 10 10 9 9 8 8 8 8 8 8 7 6 6 6 5 5 4 4 3 3
13 14 14 15 13 13 14 14 14 13 7 1 2 3 1 3 7 7 9 11 12 11 11 9 9 9 9 9 9 9 8 8 8 7 7 7 7 6 6 5 5 5 5 6
12 13 17 12 10 10 11 10 9 8 6 3 2 1 2 3 5 7 6 8 10 10 10 10 9 9 8 8 9 9 8 8 8 8 8 7 7 6 6 5 6 6 7 7
10 14 15 14 10 10 10 7 8 9 7 6 5 1 3 5 5 7 6 7 8 8 9 9 10 10 10 9 9 9 8 8 8 8 8 7 7 7 6 7 8 8 8 8
11 12 12 7 6 7 6 4 9 10 9 7 6 3 3 6 9 9 9 9 9 9 9 9 9 10 11 10 9 9 9 8 8 8 9 9 8 8 7 8 8 9 9 9
12 13 10 7 9 7 6 4 9 9 9 8 5 4 5 8 10 11 10 11 10 10 10 9 10 11 11 10 10 9 10 10 9 9 10 9 9 8 8 9 10 9 9 8
9 12 8 10 8 6 6 7 8 7 7 6 6 6 9 10 11 12 12 12 12 11 11 10 10 12 13 12 11 11 12 12 11 10 10 10 10 9 9 9 9 8 8 7
3 3 4 7 7 7 7 7 7 7 5 3 4 6 9 10 11 11 12 12 12 13 13 11 11 12 14 11 11 12 12 12 11 12 10 9 9 9 7 5 6 6 6 7
5 4 6 8 8 8 8 7 7 6 3 1 5 8 10 11 11 11 12 12 12 14 14 13 12 13 13 12 12 12 13 11 10 11 10 10 8 8 7 6 6 6 6 6
7 6 6 6 8 8 7 7 6 5 4 4 8 11 13 12 12 12 12 12 12 13 14 14 13 13 12 11 11 12 12 10 10 11 11 11 11 10 10 9 8 7 7 6
4 5 4 5 6 7 5 5 4 5 6 6 9 12 14 13 12 12 13 13 13 14 14 13 13 13 11 10 10 10 9 9 8 8 8 9 10 10 15 12 14 15 13 10
4 5 5 5 6 5 4 3 4 7 9 10 11 13 15 14 13 13 14 14 14 14 14 13 13 12 10 9 9 9 8 7 7 7 7 7 7 8 8 8 10 11 10 10
3 3 4 4 3 4 5 7 10 12 12 12 13 15 15 15 15 14 14 13 14 14 13 12 13 11 9 9 9 8 8 8 6 5 5 5 5 6 6 6 6 5 4 4
3 2 1 1 3 5 8 11 14 13 14 15 15 15 16 16 15 14 13 12 13 13 12 12 12 10 7 8 8 7 6 5 5 5 5 4 4 5 5 6 6 5 4 2
2 2 3 4 7 8 10 12 14 14 14 16 16 15 16 15 15 13 12 11 12 12 10 10 9 8 6 6 7 6 6 8 5 4 4 4 4 5 5 5 5 4 4 3
3 4 6 7 9 10 10 12 13 14 16 16 16 16 15 15 14 12 11 11 11 10 9 8 8 6 5 5 5 5 5 5 4 4 5 5 5 5 5 4 4 4 5 4
5 7 8 9 11 12 12 13 14 15 15 16 16 15 14 13 13 12 11 10 10 10 8 7 7 6 6 5 4 4 4 4 5 6 6 5 5 5 4 4 4 5 4 3
8 10 11 12 12 12 13 14 15 15 15 14 14 13 12 12 11 11 11 10 10 10 8 7 6 6 6 5 3 3 5 6 6 6 5 4 3 5 5 4 5 5 5 4
10 12 13 14 14 14 14 15 15 14 13 13 13 13 12 11 11 11 10 9 7 7 6 5 5 5 5 4 4 4 5 6 6 5 4 4 5 5 4 5 5 5 5 5
12 13 14 14 14 14 14 14 14 14 13 12 12 12 12 11 10 9 9 8 7 6 7 5 4 4 4 3 3 4 6 6 5 5 5 4 4 4 5 5 5 4 5 5
11 12 14 13 13 13 12 12 12 13 13 12 12 12 11 10 10 9 8 7 7 5 4 4 5 7 6 3 3 6 6 5 5 4 4 4 4 4 4 4 4 4 4 4
11 12 12 12 12 12 11 11 11 11 12 11 11 10 10 8 7 8 7 6 6 5 4 6 7 7 7 2 4 5 6 5 4 4 4 4 4 3 3 3 3 3 3 3
11 11 11 11 11 11 10 10 10 10 11 10 9 9 8 7 7 7 8 8 8 7 6 6 6 5 3 2 4 5 5 4 3 3 4 4 3 3 3 3 3 3 3 3
10 11 11 11 10 9 9 10 10 9 9 8 9 8 7 6 7 8 8 9 9 8 7 5 3 2 1 3 5 5 4 4 4 3 4 3 3 3 3 2 2 2 3 3
8 8 7 7 7 6 7 7 7 7 7 7 7 6 7 7 8 8 7 9 9 7 6 5 4 3 2 3 4 4 4 4 3 3 3 3 3 3 2 2 3 3 3 3
7 6 5 6 6 6 6 6 6 6 6 7 7 7 7 7 7 7 8 7 6 6 5 4 4 3 3 4 4 3 3 3 3 2 2 2 2 1 2 2 2 2 3 3
Wind_Direction
269 271 256 269 285 294 291 279 278 280 274 198 194 214 211 169 153 151 154 154 150 149 149 152 153 156 160 162 161 160 162 163 161 162 158 160 159 157 158 163 167 147 133 124
273 272 264 253 251 264 275 280 283 285 285 236 183 165 202 161 156 163 159 156 154 151 151 152 153 154 153 152 151 146 149 152 155 159 162 162 155 150 144 141 132 123 117 106
268 274 275 259 246 248 257 267 277 284 301 37 139 151 169 167 163 164 154 156 155 155 152 150 150 147 147 144 138 138 142 146 146 152 152 150 148 139 139 134 121 106 105 95
263 267 264 271 279 274 272 276 298 314 325 350 337 91 116 148 150 137 144 152 150 154 152 149 148 144 139 140 139 144 146 147 144 142 139 136 131 128 126 116 110 102 95 92
262 259 259 265 280 286 289 299 343 343 350 359 355 48 79 87 103 121 134 127 126 135 139 138 138 138 138 135 131 133 135 133 136 137 131 127 123 116 108 104 98 93 91 87
250 258 263 281 327 340 301 271 17 16 13 359 350 325 40 66 79 87 98 102 105 109 113 115 117 122 123 123 123 125 123 120 118 118 118 116 112 108 104 102 99 94 86 82
245 254 261 307 327 319 285 2 18 19 18 18 17 36 82 78 80 79 86 93 97 99 101 103 107 110 111 113 115 117 116 112 109 108 109 108 105 104 103 99 96 94 93 87
241 247 251 10 359 8 12 7 7 6 12 28 46 70 89 89 87 88 87 89 93 93 94 96 103 107 103 100 103 105 104 103 102 101 101 101 100 98 99 104 107 108 108 100
262 284 19 20 10 13 359 352 352 348 353 41 82 103 103 98 95 93 93 91 91 94 92 88 90 99 101 101 101 100 97 95 92 89 87 91 96 99 101 104 106 107 105 100
277 286 332 350 356 1 356 350 344 341 353 51 118 119 116 108 102 98 94 93 95 94 91 87 87 89 94 97 96 96 95 92 90 88 83 73 70 72 67 59 68 78 77 80
274 289 308 331 338 341 350 352 351 18 47 90 115 119 115 110 105 101 98 95 94 93 93 91 87 86 87 90 94 95 95 93 91 88 85 77 68 60 68 56 61 68 67 67
295 339 320 318 331 343 348 357 18 57 69 90 106 112 111 107 103 101 99 97 95 94 93 92 89 86 84 85 89 96 100 99 98 100 100 101 96 80 59 70 71 74 77 83
335 343 336 328 335 343 0 33 76 92 97 96 96 103 104 102 99 98 98 96 95 95 94 91 87 83 80 82 82 83 87 91 99 104 109 112 116 116 107 78 66 72 81 88
1 340 325 334 347 17 66 85 90 93 95 98 98 100 100 98 96 94 94 95 96 95 94 92 89 84 79 77 77 78 82 82 90 98 105 113 120 123 126 129 121 108 101 109
10 1 337 58 88 91 103 105 101 98 98 98 101 103 103 101 98 95 95 95 94 93 92 92 91 89 90 89 86 82 80 78 78 88 94 96 101 107 111 113 111 119 125 126
55 94 104 100 109 109 109 110 109 109 108 107 105 104 104 103 101 99 98 99 98 97 95 93 90 91 92 94 94 87 79 72 69 81 93 94 88 88 90 92 92 89 89 68
103 119 119 113 115 114 110 109 111 112 112 110 111 112 111 109 107 106 106 104 102 101 100 99 100 101 96 90 96 103 102 93 77 73 73 71 73 74 75 77 80 81 84 72
109 112 112 113 114 114 113 113 115 115 116 117 117 115 114 113 112 111 111 109 103 97 93 92 91 91 85 72 71 99 111 102 85 80 76 69 71 77 79 77 76 79 94 94
107 111 111 110 110 111 112 115 116 117 119 120 119 117 116 115 114 114 112 107 104 98 94 92 91 96 89 66 47 97 95 95 91 86 85 85 81 77 71 66 62 58 53 52
108 110 111 113 112 112 113 116 118 119 121 121 120 119 118 116 115 112 106 97 95 102 109 106 106 96 91 59 26 85 90 93 97 99 95 86 78 74 66 61 59 52 45 41
114 112 112 111 111 111 115 119 120 121 122 122 121 119 117 116 114 111 109 103 96 98 104 100 92 87 72 47 60 85 86 85 85 82 81 79 75 69 63 57 52 48 43 36
109 107 105 106 106 108 112 116 120 121 121 120 118 117 116 115 112 105 100 106 112 109 113 106 89 65 32 13 89 90 90 88 87 86 83 79 75 68 62 57 52 50 45 35
103 104 104 105 106 106 107 113 118 118 117 118 118 119 119 118 119 118 114 110 112 107 95 85 79 58 17 49 89 91 89 86 85 87 84 78 75 70 64 57 53 52 44 24
104 106 106 107 107 107 109 114 113 113 115 117 118 119 121 118 114 109 108 106 101 109 99 91 79 50 8 99 91 90 88 86 86 84 81 77 75 71 61 49 42 36 33 21
105 109 112 114 112 113 114 114 114 119 123 121 124 125 120 109 109 112 114 115 121 118 114 110 91 9 5 94 95 93 84 67 60 57 74 69 63 68 55 39 30 16 18 21
104 109 109 110 111 119 125 126 127 127 124 122 120 117 110 110 114 119 122 126 125 129 133 141 151 178 157 114 109 110 114 125 121 98 74 70 62 50 40 22 15 12 14 20
110 110 110 109 109 106 108 112 115 117 119 123 120 117 120 124 126 128 130 135 143 148 146 152 153 152 129 114 111 112 109 104 96 91 93 82 65 41 41 22 5 7 360 6